{"data":{"norad_id":61950,"epoch":"2026-09-21T21:23:52.778976Z","epoch_age_seconds":65353,"freshness":"FRESH","line1":"1 61950U 24209M   26264.89158309  .00142611  00000+0  11615-2 0  9991","line2":"2 61950  53.1573 124.0589 0001552  33.4370 326.6746 15.69716449107531","mean_motion":15.69716449,"eccentricity":0.0001552,"inclination_deg":53.1573,"raan_deg":124.0589,"arg_perigee_deg":33.437,"mean_anomaly_deg":326.6746,"bstar":0.0011615,"rev_number":10753,"period_min":91.736313326994,"perigee_km":358.66258232358,"apogee_km":360.75400950343,"semimajor_km":6737.8452959135,"source":"CELESTRAK","updated_at":"2026-09-22T09:00:49.455805Z"}}